Вернуться в каталог

FENGYUN 1C DEB

АктивенPO
NORAD 29733·DEBRIS·🇨🇳 China

Запущен May 10, 1999 с Taiyuan Satellite Launch Center

Loading…

Ближайшие Пролёты (ближайшие 24 часа)

TLE

СвежийSource: Space-Track

Эпоха: Sep 14, 2026, 22:07 UTC

1 29733U 99025X   26257.92192565  .00001005  00000-0  17410-2 0  9991
2 29733  99.2060 276.8764 0563790 284.0993 194.6127 12.96913561926995

Отслеживайте FENGYUN 1C DEB в реальном времени с AllMySat

Download on the App Store